Weather in Slavuta

Ukraine / Khmelnitsky District     50°18′09″N   26°52′06″E
temp.,
°C
wind,
m/s
gust,
m/s
humid.,
%
clouds,
%
prec.,
mm/h
press.,
hPa
HPBL,
m
29 may, sun
sun2900:00+9sw368870 0.3 1014140
03:00+6wsw35940 0.3 101484
06:00+5wsw389226 0.0 1014166
09:00+12w3565100 0.0 1014632
12:00+15wsw345196 0.0 10141693
15:00+17wsw234685 0.0 10141924
18:00+16s345699 0.0 1014724
21:00+12ene227064 0.0 101425
30 may, mon
mon3000:00+13ese41163100 0.0 1013388
03:00+13se61369100 0.0 1011663
06:00+11se61495100 1.9 1010629
09:00+12sse51398100 9.9 1010715
12:00+15ssw489367 0.8 1011632
15:00+18w566869 1.5 10111188
18:00+17wnw566319 0.0 10131118
21:00+11nw24835 0.0 101576
31 may, tue
tue3100:00+9nnw228795 0.0 101614
03:00+9ene118797 0.0 101711
06:00+10w1184100 0.0 101820
09:00+14sw3473100 0.0 1019412
12:00+17sw236117 0.1 10191038
15:00+19sw345532 0.8 10191749
18:00+18nw346088 0.1 1019245
21:00+14ne11730 0.1 101911
1 june, wed
wed100:00+11e22785 0.0 102011
03:00+11se3585100 0.0 102174
06:00+11sse388667 0.0 1020162
09:00+17sse59666 0.0 1019592
12:00+20sse694990 0.0 10171327
15:00+21s5758100 0.1 10161426
18:00+17ssw248950 1.4 1016127
21:00+15w22910 2.5 101722
2 june, thu
thu200:00+13wnw22940 0.0 101818
03:00+11w119345 0.0 101811
06:00+11s23945 0.0 101944
09:00+17ssw46725 0.0 1018373
12:00+22sw575316 0.0 10181632
15:00+21wnw4661100 0.1 1018691
18:00+19nnw3576100 1.3 1018446
21:00+15nnw3780100 1.3 1020151